Big Piney, WY

12:56 PM MDT on September 23, 2017 (GMT -0600)
Big Piney-Marbleton

Weather History for KBPI - July, 2013

Change the Weather History Date:

Sunday, July 28, 2013

  Actual Average Record
Temperature  
Mean Temperature 64 °F 63 °F  
Max Temperature 81 °F 82 °F 92 °F (2006)
Min Temperature 46 °F 44 °F 29 °F (2015)
Degree Days  
Heating Degree Days 1 3  
Month to date heating degree days 14 106  
Since 1 June heating degree days 231 411  
Since 1 July heating degree days 14 106  
Cooling Degree Days 0 1  
Month to date cooling degree days 57 20  
Year to date cooling degree days 77 22  
Since 1 June cooling degree days 77 22  
Growing Degree Days 12 (Base 50)    
Moisture  
Dew Point 43 °F    
Average Humidity 59    
Maximum Humidity 100    
Minimum Humidity 17    
Precipitation  
Precipitation 0.00 in 0.03 in 0.14 in (1997)
Month to date precipitation 0.54 0.63  
Year to date precipitation 2.24 3.89  
Sea Level Pressure  
Sea Level Pressure 29.94 in    
Wind  
Wind Speed 8 mph (North)    
Max Wind Speed 36 mph    
Max Gust Speed 44 mph    
Visibility 8 miles    
Events Fog    
T = Trace of Precipitation, MM = Missing Value Source: NWS Daily Summary

Daily Weather History Graph

Daily Weather History Graph

Search for Another Location

Airport or City:

Trip Planner

Search our weather history database for the weather conditions in past years. The results will help you decide how hot, cold, wet, or windy it might be!

Date:

Astronomy

Jul. 28, 2013 Rise Set
Actual Time 6:08 AM MDT 8:44 PM MDT
Civil Twilight 5:36 AM MDT 9:16 PM MDT
Nautical Twilight 4:55 AM MDT 9:57 PM MDT
Astronomical Twilight 4:09 AM MDT 10:42 PM MDT
Moon 11:57 PM MDT (7/28) 1:04 PM MDT (7/28)
Length of Visible Light 15h 40m
Length of Day
14h 35m
Waning Gibbous, 60% of the Moon is Illuminated
Jul 28
Waning Gibbous
Jul 29
Last Quarter
Aug 6
New
Aug 14
First Quarter
Aug 20
Full

Hourly Weather History & Observations

Time (MDT) Temp. Windchill Dew Point Humidity Pressure Visibility Wind Dir Wind Speed Gust Speed Precip Events Conditions
12:53 AM 53.1 °F - 46.9 °F 80% 29.88 in 10.0 mi NE 3.5 mph - N/A   Overcast
1:53 AM 51.1 °F - 46.0 °F 83% 29.88 in 10.0 mi NE 5.8 mph - N/A   Scattered Clouds
2:53 AM 48.9 °F - 44.1 °F 83% 29.90 in 10.0 mi East 5.8 mph - N/A   Clear
3:14 AM 50.0 °F - 46.4 °F 87% 30.14 in 10.0 mi SE 5.8 mph - N/A   Partly Cloudy
3:28 AM 51.8 °F - 48.2 °F 88% 30.14 in 8.0 mi Calm Calm - N/A   Mostly Cloudy
3:53 AM 51.1 °F - 46.9 °F 86% 29.91 in 10.0 mi NE 3.5 mph - N/A   Overcast
4:08 AM 51.8 °F - 50.0 °F 94% 30.14 in 1.8 mi NE 3.5 mph - N/A   Overcast
4:32 AM 51.8 °F - 50.0 °F 94% 30.14 in 0.5 mi Calm Calm - N/A Fog Fog
4:53 AM 50.0 °F - 50.0 °F 100% 29.88 in 0.2 mi Calm Calm - N/A Fog Fog
5:31 AM 48.2 °F - 46.4 °F 93% 30.15 in 1.2 mi NNW 5.8 mph - N/A   Overcast
5:39 AM 46.4 °F 42.9 °F 46.4 °F 100% 30.14 in 4.0 mi NNW 6.9 mph - N/A   Overcast
5:51 AM 46.4 °F 43.5 °F 46.4 °F 100% 30.14 in 10.0 mi NW 5.8 mph - N/A   Overcast
5:53 AM 46.9 °F - 46.0 °F 97% 29.90 in 10.0 mi NW 6.9 mph - N/A   Overcast
6:24 AM 50.0 °F - 44.6 °F 82% 30.15 in 10.0 mi NNW 4.6 mph - N/A   Overcast
6:53 AM 51.1 °F - 45.0 °F 80% 29.89 in 10.0 mi Calm Calm - N/A   Overcast
7:49 AM 53.6 °F - 46.4 °F 77% 30.15 in 10.0 mi Calm Calm - N/A   Scattered Clouds
7:53 AM 53.1 °F - 46.9 °F 80% 29.90 in 10.0 mi Calm Calm - N/A   Partly Cloudy
8:53 AM 55.0 °F - 48.0 °F 77% 29.91 in 10.0 mi ENE 6.9 mph - N/A   Clear
11:53 AM 73.0 °F - 42.1 °F 33% 29.85 in 10.0 mi West 6.9 mph - N/A   Clear
12:53 PM 73.9 °F - 39.9 °F 29% 29.81 in 10.0 mi Variable 4.6 mph 18.4 mph N/A   Clear
1:53 PM 79.0 °F - 30.0 °F 17% 29.78 in 10.0 mi WNW 8.1 mph 19.6 mph N/A   Clear
2:53 PM 78.1 °F - 30.0 °F 17% 29.78 in 10.0 mi WNW 11.5 mph 17.3 mph N/A   Mostly Cloudy
3:53 PM 78.1 °F - 30.9 °F 18% 29.77 in 10.0 mi NNW 17.3 mph 24.2 mph N/A   Clear
4:53 PM 69.1 °F - 34.0 °F 27% 29.84 in 10.0 mi NW 31.1 mph 42.6 mph N/A   Clear
5:53 PM 64.9 °F - 37.9 °F 37% 29.87 in 10.0 mi West 20.7 mph 31.1 mph N/A   Mostly Cloudy
6:53 PM 66.0 °F - 39.0 °F 37% 29.84 in 10.0 mi NNW 9.2 mph - N/A   Clear
7:53 PM 69.1 °F - 35.1 °F 29% 29.85 in 10.0 mi North 11.5 mph - N/A   Clear
8:53 PM 60.1 °F - 35.1 °F 39% 29.86 in 10.0 mi North 8.1 mph - N/A   Clear
9:53 PM 57.0 °F - 39.0 °F 51% 29.87 in 10.0 mi North 9.2 mph - N/A   Clear
10:53 PM 51.1 °F - 39.0 °F 63% 29.87 in 10.0 mi NW 6.9 mph - N/A   Clear